Regional Weather Roundup
Issued by NWS

Home | Current Version | Previous Version | Text Only | Print | Product List | Glossary On
Versions: 1 2 3 4 5 6 7 8 9 10 11 12 13 14 15 16 17 18 19 20 21 22 23 24 25 26 27 28 29 30 31 32 33 34 35 36 37 38 39 40 41 42 43 44 45 46 47 48 49 50
006
ASUS46 KSTO 291215
RWRCA

NORTHERN AND CENTRAL CA REGIONAL WEATHER ROUNDUP
NATIONAL WEATHER SERVICE SACRAMENTO CA
500 AM PDT SAT APR 29 2017

NOTE: FAIR INDICATES FEW OR NO CLOUDS BELOW 12,000 FEET WITH NO
SIGNIFICANT WEATHER AND/OR OBSTRUCTIONS TO VISIBILITY.

CAZ001-003-291300-
NORTHWEST AREA

CITY           SKY/WX    TMP DP  RH WIND       PRES   REMARKS
CRESCENT CITY  CLEAR     44  43  96 CALM      30.23S
UKIAH          CLEAR     43  41  93 E3        30.15S
$$

CAZ006-505>513-291300-
BAY AREA

CITY           SKY/WX    TMP DP  RH WIND       PRES   REMARKS
SANTA ROSA     CLEAR     48  42  80 N9        30.09S
SAN RAFAEL     N/A       61  MM  MM MISG
NAPA           CLEAR     62  30  29 N14       30.06F
CONCORD        CLEAR     50  38  63 CALM      30.08S
OAKLAND CITY   N/A      MM  MM  MM MISG
OAKLAND        CLEAR     59  39  47 CALM      30.07S
SAN FRAN CITY  N/A       MM  MM  MM MISG
SAN FRAN ARPT  CLEAR     57  44  62 CALM      30.07R
LIVERMORE      CLEAR     47  34  60 E7        30.07S
HAYWARD        CLEAR     55  31  39 NE7       30.07R
REDWOOD CITY   N/A       52  MM  62 MISG
MOFFETT ARPT   CLEAR     57  36  45 W8        30.07R
SAN JOSE ARPT  CLEAR     55  38  52 W5        30.06R
$$
CAZ034-037-514>518-291300-
CENTRAL COAST

CITY           SKY/WX    TMP DP  RH WIND       PRES   REMARKS
WATSONVILLE    CLEAR     45  44  97 NW3       30.06R FOG
SALINAS        CLEAR     50  43  77 W6        30.05R
MONTEREY       CLEAR     48  37  65 E3        30.05R
SAN LUIS OBISP CLEAR     49  39  68 SW6       30.02R
SANTA MARIA    CLEAR     43  41  93 CALM      30.01S
$$
CAZ015-016-291300-
NORTHERN SACRAMENTO VALLEY

CITY           SKY/WX    TMP DP  RH WIND       PRES   REMARKS
REDDING        CLEAR     45  38  76 CALM      30.16R
RED BLUFF      CLEAR     46  35  65 N3        30.17R
OROVILLE       CLEAR     54  33  45 CALM      30.13S
$$
CAZ016>018-291300-
SOUTHERN SACRAMENTO VALLEY

CITY           SKY/WX    TMP DP  RH WIND       PRES   REMARKS
AUBURN         CLEAR     52  23  32 NE5       30.09R
BEALE AFB      CLEAR     45  36  70 NW9       30.08R
LINCOLN        FAIR      43  34  70 N10       30.07R
MARYSVILLE     CLEAR     51  36  56 N9        30.10R
SAC INTL ARPT  CLEAR     49  40  71 N10       30.07R
MATHER AIRPORT CLEAR     52  32  46 NW8       30.05S
DOWNTOWN SAC   N/A       53  MM  MM MISG
SAC EXEC ARPT  CLEAR     50  39  66 NW8       30.07R
VACAVILLE      CLEAR     62  27  26 N15       30.08R
TRAVIS AFB     CLEAR     57  31  37 CALM      30.05S
$$
CAZ019>021-291300-
SAN JOAQUIN VALLEY

CITY           SKY/WX    TMP DP  RH WIND       PRES   REMARKS
STOCKTON       CLEAR     49  39  68 W8        30.04S
MODESTO        CLEAR     54  37  52 NW13      30.02S
MERCED         CLEAR     47  35  63 CALM      30.03R
LEMOORE        CLEAR     49  30  48 N8        30.03R
FRESNO         PTCLDY    50  41  71 NE3       30.03R
HANFORD        CLEAR     46  42  86 CALM      30.03R
PORTERVILLE      N/A     47  35  63 SE8       30.04R
BAKERSFIELD    CLEAR     55  33  43 CALM      30.03R
$$
CAZ011-012-071-291300-
NORTHERN MOUNTAINS

CITY           SKY/WX    TMP DP  RH WIND       PRES   REMARKS
YREKA          CLEAR     31  28  89 CALM      30.26S
MOUNT SHASTA   CLEAR     30  25  81 CALM      30.24R
ALTURAS        CLEAR     27  23  85 CALM      30.26R
$$
CAZ011-012-071-291300-
SIERRA NEVADA MTNS

CITY           SKY/WX    TMP DP  RH WIND       PRES   REMARKS
BLUE CANYON    CLEAR     40  12  32 E15G29    30.13R WCI  32
TRUCKEE        CLEAR     27  18  69 CALM      30.22R
TAHOE VLY ARPT CLEAR     32  13  45 VRB6      30.19R WCI  26
MAMMOTH LAKES  FAIR      24  13  64 W10       30.22S WCI  13
$$




USA.gov is the U.S. government's official web portal to all federal, state and local government web resources and services.